アトラス彗星

C/2021 C4 ( ATLAS )

English version
Home page
Updated on August 15, 2021

---------------------------------------------------------------------

・ プロフィール

発見日 2021年2月12日
発見光度 18.7等
発見者 Asteroid Terrestrial-Impact Last Alert System (ATLAS) search program

・ 写真集

・ 軌道要素

Epoch 2021 July 5.0 TT = JDT 2459400.5
T 2021 Jan. 17.07449 TT                                 Rudenko
q   4.5042209            (2000.0)            P               Q
z  +0.0001625      Peri.  320.23394     -0.63766668     -0.74879230
 +/-0.0000065      Node   194.27606     -0.37409134     +0.09583984
e   0.9992680      Incl.  132.84310     -0.67337721     +0.65583902
From 215 observations 2021 Feb. 12-July 4, mean residual 0".5.

・ 光度変化

        m1 = 8.5 + 5 logΔ + 10.0 log r

---------------------------------------------------------------------

軌道要素はM.P.E.C. 2021-P47に掲載されたものです。
光度グラフはComet for Windowsで作成したものです。

---------------------------------------------------------------------

Copyright(C) Seiichi Yoshida (comet@aerith.net). All rights reserved.